Date String (YYYY-MM-DD hh:mm:ss) UTC,Instrument flags,Ambient pressure (hPa),Sample flow (lpm),Bypass flow (lpm),Sample temperature (°C),Ambient temperature (°C),ASC tube jacket temperature (°C),LED temperature (°C),Box temperature (°C),Sample RH (%),Span deviation,Mass concentration (μg/m³),Mass concentration (μg/m³),Mass concentration (μg/m³)
DateTimeUTC,F1_M11,P_M11,Q1_M11,Q2_M11,T1_M11,T2_M11,T3_M11,T4_M11,T5_M11,U1_M11,ZSPAN_M11,X2_M11,X0_M11,X1_M11
2023-03-07 08:00:00,,0824.7,5.00,0.00,22.7,21.9,00.0,31.4,24.5,15.8,0000.4,0008.76,0011.33,0008.42
2023-03-07 08:01:00,,0824.6,5.01,0.00,22.7,21.6,00.0,31.4,24.4,15.8,0000.4,0008.79,0011.35,0008.44
2023-03-07 08:02:00,,0824.6,5.00,0.00,22.7,21.4,00.0,31.4,24.3,15.8,0000.0,0008.83,0011.38,0008.46
2023-03-07 08:03:00,,0824.6,5.00,0.00,22.6,21.2,00.0,31.4,24.2,15.8,0000.0,0008.85,0011.25,0008.49
2023-03-07 08:04:00,,0824.7,5.01,0.00,22.6,21.0,00.0,31.4,24.2,15.8,0000.0,0008.85,0011.20,0008.51
2023-03-07 08:05:00,,0824.6,5.01,0.00,22.6,20.9,00.0,31.4,24.2,15.8,0000.0,0008.87,0011.16,0008.52
2023-03-07 08:06:00,,0824.6,5.03,0.00,22.6,20.8,00.0,31.4,24.2,15.9,0000.0,0008.85,0011.13,0008.51
2023-03-07 08:07:00,,0824.6,5.01,0.00,22.5,20.7,00.0,31.3,24.1,15.9,0000.0,0008.82,0010.93,0008.50
2023-03-07 08:08:00,,0824.6,5.03,0.00,22.5,21.1,00.0,31.3,24.2,15.9,0000.0,0008.79,0010.84,0008.48
2023-03-07 08:09:00,,0824.7,4.97,0.00,22.6,22.2,00.0,31.3,24.4,15.8,0000.0,0008.77,0010.84,0008.48
2023-03-07 08:10:00,,0824.7,5.00,0.00,22.7,23.2,00.0,31.3,24.7,15.7,0000.0,0008.77,0010.96,0008.47
2023-03-07 08:11:00,,0824.7,5.00,0.00,22.8,23.1,00.0,31.4,24.7,15.7,0000.0,0008.78,0011.37,0008.47
2023-03-07 08:12:00,,0824.7,5.00,0.00,22.8,22.6,00.0,31.4,24.6,15.7,0000.0,0008.78,0011.40,0008.48
2023-03-07 08:13:00,,0824.7,4.99,0.00,22.8,22.2,00.0,31.4,24.5,15.7,0000.0,0008.76,0011.37,0008.47
2023-03-07 08:14:00,,0824.7,4.99,0.00,22.7,21.8,00.0,31.4,24.4,15.7,0000.0,0008.77,0011.41,0008.48
2023-03-07 08:15:00,,0824.7,5.01,0.00,22.7,21.5,00.0,31.4,24.3,15.7,0000.0,0008.80,0011.46,0008.51
2023-03-07 08:16:00,,0824.7,5.00,0.00,22.7,21.3,00.0,31.4,24.3,15.8,0000.0,0008.83,0011.49,0008.55
2023-03-07 08:17:00,,0824.6,5.02,0.00,22.6,21.2,00.0,31.4,24.3,15.8,0000.0,0008.89,0011.59,0008.60
2023-03-07 08:18:00,,0824.8,5.03,0.00,22.6,21.0,00.0,31.4,24.2,15.8,0000.0,0008.92,0011.62,0008.63
2023-03-07 08:19:00,,0824.6,5.03,0.00,22.6,20.9,00.0,31.4,24.2,15.8,0000.0,0008.93,0011.69,0008.65
2023-03-07 08:20:00,,0824.7,4.98,0.00,22.6,20.8,00.0,31.4,24.1,15.9,0000.0,0008.98,0011.72,0008.68
2023-03-07 08:21:00,,0824.6,5.00,0.00,22.5,20.9,00.0,31.4,24.1,15.9,0000.0,0009.02,0011.68,0008.70
2023-03-07 08:22:00,,0824.6,4.99,0.00,22.6,21.8,00.0,31.3,24.4,15.8,0000.0,0009.00,0011.25,0008.71
2023-03-07 08:23:00,,0824.6,4.99,0.00,22.7,22.8,00.0,31.4,24.6,15.8,0000.0,0008.97,0011.14,0008.72
2023-03-07 08:24:00,,0824.6,4.99,0.00,22.8,23.2,00.0,31.4,24.7,15.7,0000.0,0008.99,0011.08,0008.73
2023-03-07 08:25:00,,0824.6,5.00,0.00,22.8,22.8,00.0,31.4,24.6,15.6,0000.0,0008.98,0010.97,0008.73
2023-03-07 08:26:00,,0824.7,4.97,0.00,22.8,22.3,00.0,31.4,24.6,15.6,0000.0,0008.96,0010.96,0008.70
2023-03-07 08:27:00,,0824.7,5.00,0.00,22.8,21.9,00.0,31.5,24.5,15.7,0000.0,0008.93,0010.93,0008.66
2023-03-07 08:28:00,,0824.7,4.99,0.00,22.8,21.6,00.0,31.5,24.4,15.7,0000.0,0008.87,0010.81,0008.63
2023-03-07 08:29:00,,0824.7,5.01,0.00,22.7,21.4,00.0,31.5,24.4,15.7,0000.0,0008.86,0010.80,0008.61
2023-03-07 08:30:00,,0824.7,4.99,0.00,22.7,21.2,00.0,31.4,24.3,15.7,0000.0,0008.85,0010.73,0008.61
2023-03-07 08:31:00,,0824.7,5.01,0.00,22.7,21.0,00.0,31.4,24.3,15.7,0000.0,0008.80,0010.70,0008.58
2023-03-07 08:32:00,,0824.7,5.01,0.00,22.6,20.9,00.0,31.4,24.2,15.7,0000.0,0008.70,0010.53,0008.50
2023-03-07 08:33:00,,0824.8,5.01,0.00,22.6,20.8,00.0,31.4,24.2,15.8,0000.0,0008.64,0010.49,0008.44
2023-03-07 08:34:00,,0824.7,5.00,0.00,22.6,20.7,00.0,31.4,24.2,15.8,0000.0,0008.58,0010.45,0008.37
2023-03-07 08:35:00,,0824.7,5.02,0.00,22.6,21.4,00.0,31.4,24.3,15.8,0000.0,0008.53,0010.41,0008.32
2023-03-07 08:36:00,,0824.8,5.01,0.00,22.7,22.5,00.0,31.4,24.6,15.7,0000.0,0008.49,0010.38,0008.28
2023-03-07 08:37:00,,0824.8,4.96,0.00,22.8,23.2,00.0,31.4,24.8,15.6,0000.0,0008.46,0010.33,0008.26
2023-03-07 08:38:00,,0824.7,4.99,0.00,22.8,22.8,00.0,31.4,24.7,15.6,0000.0,0008.41,0010.34,0008.23
2023-03-07 08:39:00,,0824.8,4.98,0.00,22.8,22.4,00.0,31.5,24.6,15.6,0000.0,0008.35,0010.25,0008.19
2023-03-07 08:40:00,,0824.7,5.01,0.00,22.8,22.0,00.0,31.5,24.5,15.6,0000.0,0008.32,0010.22,0008.17
2023-03-07 08:41:00,,0824.6,4.99,0.00,22.8,21.7,00.0,31.5,24.5,15.7,0000.0,0008.29,0010.18,0008.14
2023-03-07 08:42:00,,0824.6,5.00,0.00,22.8,21.5,00.0,31.5,24.4,15.7,0000.0,0008.25,0010.07,0008.11
2023-03-07 08:43:00,,0824.6,5.00,0.00,22.7,21.3,00.0,31.5,24.4,15.7,0000.0,0008.24,0010.02,0008.11
2023-03-07 08:44:00,,0824.6,5.02,0.00,22.7,21.1,00.0,31.5,24.3,15.7,0000.0,0008.25,0010.02,0008.12
2023-03-07 08:45:00,,0824.6,5.01,0.00,22.7,21.0,00.0,31.5,24.3,15.8,0000.0,0008.24,0010.02,0008.12
2023-03-07 08:46:00,,0824.7,5.00,0.00,22.7,20.9,00.0,31.5,24.2,15.8,0000.0,0008.23,0010.03,0008.12
2023-03-07 08:47:00,,0824.6,5.00,0.00,22.6,20.8,00.0,31.4,24.2,15.8,0000.0,0008.19,0009.96,0008.09
2023-03-07 08:48:00,,0824.7,5.00,0.00,22.6,20.8,00.0,31.4,24.1,15.9,0000.0,0008.14,0009.92,0008.03
2023-03-07 08:49:00,,0824.8,4.99,0.00,22.6,21.6,00.0,31.4,24.4,15.9,0000.0,0008.07,0009.79,0007.96
2023-03-07 08:50:00,,0824.7,4.98,0.00,22.7,22.6,00.0,31.4,24.6,15.8,0000.0,0008.02,0009.73,0007.91
2023-03-07 08:51:00,,0824.8,4.99,0.00,22.8,23.2,00.0,31.4,24.8,15.7,0000.0,0007.96,0009.65,0007.83
2023-03-07 08:52:00,,0824.8,5.01,0.00,22.9,22.8,00.0,31.5,24.7,15.6,0000.0,0007.89,0009.55,0007.77
2023-03-07 08:53:00,,0824.8,5.00,0.00,22.9,22.4,00.0,31.5,24.6,15.6,0000.0,0007.86,0009.51,0007.74
2023-03-07 08:54:00,,0824.8,5.00,0.00,22.8,22.0,00.0,31.5,24.6,15.7,0000.0,0007.82,0009.48,0007.69
2023-03-07 08:55:00,,0824.7,5.01,0.00,22.8,21.7,00.0,31.5,24.5,15.7,0000.0,0007.74,0009.39,0007.61
2023-03-07 08:56:00,,0824.7,4.99,0.00,22.8,21.5,00.0,31.5,24.4,15.7,0000.0,0007.66,0009.27,0007.55
2023-03-07 08:57:00,,0824.7,4.99,0.00,22.8,21.2,00.0,31.5,24.3,15.7,0000.0,0007.59,0009.15,0007.48
2023-03-07 08:58:00,,0824.6,5.00,0.00,22.7,21.1,00.0,31.5,24.3,15.7,0000.0,0007.57,0009.16,0007.44
2023-03-07 08:59:00,,0824.8,5.00,0.00,22.7,21.0,00.0,31.5,24.3,15.7,0000.0,0007.54,0009.13,0007.41
